When you browse on this site, cookies collect data to enhance your experience and personalize the content and advertising you see.
Visit our Privacy Policy to learn more. By continuing to use the site, you agree to this use of cookies and data.
  • En España
  • Lista de países
  • Para 7 días
  • Temperatura del agua
  • Mapa Satelital
  • El tiempo en el mapa
  • Informadores
  • user-avatar
    Iniciar sesión

    Tiempo cada hora Gabrovo

    Hoy, 20 Enero, Domingo

    Tiempo Temperatura Precipitaciones Viento Presión Humedad
    00:00 +1°C° 0.1 mm 2 mps 702 mmHg 94%
    01:00 +1°C° 0.1 mm 2 mps 702 mmHg 95%
    02:00 +2°C° 0 mm 1 mps 702 mmHg 96%
    03:00 +2°C° 0.1 mm 1 mps 702 mmHg 97%
    04:00 +2°C° 0.1 mm 1 mps 701 mmHg 97%
    05:00 +2°C° 0.1 mm 1 mps 701 mmHg 97%
    06:00 +3°C° 0 mm 1 mps 701 mmHg 97%
    07:00 +3°C° 0 mm 1 mps 701 mmHg 97%
    08:00 +3°C° 0 mm 1 mps 700 mmHg 97%
    09:00 +3°C° 0 mm 1 mps 700 mmHg 96%
    10:00 +3°C° 0 mm 2 mps 700 mmHg 94%
    11:00 +3°C° 0 mm 2 mps 700 mmHg 93%
    12:00 +4°C° 0.1 mm 2 mps 700 mmHg 91%
    13:00 +4°C° 0.1 mm 2 mps 699 mmHg 90%
    14:00 +5°C° 0.1 mm 2 mps 699 mmHg 89%
    15:00 +4°C° 0 mm 2 mps 699 mmHg 91%
    16:00 +5°C° 0 mm 1 mps 699 mmHg 93%
    17:00 +5°C° 0 mm 1 mps 698 mmHg 95%
    18:00 +4°C° 0.1 mm 1 mps 698 mmHg 95%
    19:00 +4°C° 0.1 mm 1 mps 698 mmHg 95%
    20:00 +2°C° 0.1 mm 0 mps 698 mmHg 95%
    21:00 +3°C° 0.1 mm 1 mps 699 mmHg 95%
    22:00 +3°C° 0.1 mm 1 mps 699 mmHg 94%
    23:00 +3°C° 0.1 mm 1 mps 699 mmHg 94%

    Mañana, 21 Enero, Lunes

    Tiempo Temperatura Precipitaciones Viento Presión Humedad
    00:00 +3°C° 0 mm 1 mps 699 mmHg 93%
    01:00 +2°C° 0 mm 1 mps 699 mmHg 92%
    02:00 +2°C° 0 mm 1 mps 699 mmHg 92%
    03:00 +2°C° 0 mm 1 mps 699 mmHg 91%
    04:00 +2°C° 0 mm 1 mps 699 mmHg 91%
    05:00 +1°C° 0 mm 1 mps 699 mmHg 91%
    06:00 +1°C° 0 mm 1 mps 699 mmHg 90%
    07:00 +1°C° 0 mm 1 mps 699 mmHg 90%
    08:00 +1°C° 0 mm 1 mps 700 mmHg 89%
    09:00 +2°C° 0 mm 1 mps 700 mmHg 84%
    10:00 +4°C° 0 mm 1 mps 701 mmHg 79%
    11:00 +4°C° 0 mm 0 mps 701 mmHg 74%
    12:00 +6°C° 0 mm 1 mps 701 mmHg 72%
    13:00 +6°C° 0 mm 1 mps 701 mmHg 70%
    14:00 +7°C° 0 mm 1 mps 701 mmHg 68%
    15:00 +6°C° 0 mm 1 mps 702 mmHg 72%
    16:00 +5°C° 0 mm 1 mps 702 mmHg 75%
    17:00 +5°C° 0 mm 1 mps 702 mmHg 79%
    18:00 +4°C° 0 mm 1 mps 702 mmHg 81%
    19:00 +4°C° 0 mm 1 mps 702 mmHg 83%
    20:00 +3°C° 0 mm 1 mps 702 mmHg 85%
    21:00 +2°C° 0 mm 2 mps 703 mmHg 87%
    22:00 +1°C° 0 mm 2 mps 703 mmHg 88%
    23:00 +1°C° 0 mm 2 mps 703 mmHg 89%

    Pasado mañana, 22 Enero, Martes

    Tiempo Temperatura Precipitaciones Viento Presión Humedad
    00:00 +1°C° 0 mm 2 mps 703 mmHg 89%
    01:00 +1°C° 0 mm 2 mps 703 mmHg 89%
    02:00 -1°C° 0 mm 2 mps 702 mmHg 89%
    03:00 -1°C° 0 mm 2 mps 702 mmHg 90%
    04:00 -1°C° 0 mm 2 mps 702 mmHg 91%
    05:00 -2°C° 0 mm 2 mps 701 mmHg 92%
    06:00 -2°C° 0.1 mm 2 mps 701 mmHg 92%
    07:00 -2°C° 0.1 mm 2 mps 701 mmHg 93%
    08:00 -2°C° 0.1 mm 2 mps 701 mmHg 93%
    09:00 -1°C° 0.1 mm 2 mps 701 mmHg 92%
    10:00 -1°C° 0.1 mm 2 mps 701 mmHg 91%
    11:00 -1°C° 0.1 mm 2 mps 701 mmHg 90%
    12:00 +1°C° 0 mm 2 mps 700 mmHg 89%
    13:00 +1°C° 0 mm 2 mps 700 mmHg 88%
    14:00 +1°C° 0 mm 3 mps 699 mmHg 87%
    15:00 +1°C° 0 mm 3 mps 699 mmHg 88%
    16:00 0°C° 0 mm 3 mps 698 mmHg 90%
    17:00 0°C° 0 mm 3 mps 698 mmHg 91%
    18:00 0°C° 0.1 mm 3 mps 697 mmHg 93%
    19:00 0°C° 0.1 mm 3 mps 697 mmHg 94%
    20:00 0°C° 0.1 mm 3 mps 697 mmHg 95%
    21:00 +1°C° 0.1 mm 3 mps 696 mmHg 96%
    22:00 +1°C° 0.1 mm 3 mps 696 mmHg 96%
    23:00 +1°C° 0.1 mm 3 mps 695 mmHg 97%

    23 Enero, Miércoles

    Tiempo Temperatura Precipitaciones Viento Presión Humedad
    00:00 +1°C° 0.3 mm 3 mps 695 mmHg 97%
    01:00 +1°C° 0.3 mm 3 mps 694 mmHg 97%
    02:00 +1°C° 0.3 mm 3 mps 694 mmHg 97%
    03:00 +1°C° 0.2 mm 3 mps 693 mmHg 97%
    04:00 +1°C° 0.2 mm 3 mps 692 mmHg 97%
    05:00 +1°C° 0.2 mm 3 mps 692 mmHg 97%
    06:00 +2°C° 0 mm 2 mps 692 mmHg 97%
    07:00 +2°C° 0 mm 2 mps 692 mmHg 97%
    08:00 +3°C° 0 mm 2 mps 691 mmHg 97%
    09:00 +4°C° 0 mm 2 mps 692 mmHg 95%
    10:00 +5°C° 0 mm 2 mps 692 mmHg 92%
    11:00 +6°C° 0 mm 2 mps 692 mmHg 89%
    12:00 +7°C° 0 mm 2 mps 692 mmHg 82%
    13:00 +8°C° 0 mm 2 mps 692 mmHg 75%
    14:00 +9°C° 0 mm 2 mps 692 mmHg 68%
    15:00 +8°C° 0 mm 2 mps 692 mmHg 71%
    16:00 +7°C° 0 mm 2 mps 692 mmHg 74%
    17:00 +6°C° 0 mm 2 mps 692 mmHg 78%
    18:00 +6°C° 0 mm 2 mps 692 mmHg 82%
    19:00 +5°C° 0 mm 2 mps 692 mmHg 87%
    20:00 +4°C° 0 mm 2 mps 692 mmHg 91%
    21:00 +4°C° 0.1 mm 3 mps 692 mmHg 93%
    22:00 +4°C° 0.1 mm 3 mps 692 mmHg 94%
    23:00 +4°C° 0.1 mm 3 mps 692 mmHg 96%

    24 Enero, Jueves

    Tiempo Temperatura Precipitaciones Viento Presión Humedad
    00:00 +4°C° 0.4 mm 3 mps 692 mmHg 96%
    01:00 +4°C° 0.4 mm 3 mps 692 mmHg 96%
    02:00 +5°C° 0.4 mm 4 mps 691 mmHg 96%
    03:00 +5°C° 0.5 mm 4 mps 691 mmHg 96%
    04:00 +5°C° 0.5 mm 4 mps 691 mmHg 96%
    05:00 +5°C° 0.5 mm 4 mps 691 mmHg 97%
    06:00 +5°C° 0.6 mm 4 mps 690 mmHg 97%
    07:00 +5°C° 0.6 mm 4 mps 690 mmHg 97%
    08:00 +5°C° 0.6 mm 4 mps 690 mmHg 97%
    09:00 +5°C° 0.8 mm 4 mps 690 mmHg 96%
    10:00 +5°C° 0.8 mm 5 mps 690 mmHg 95%
    11:00 +5°C° 0.8 mm 5 mps 690 mmHg 94%
    12:00 +5°C° 0.5 mm 5 mps 689 mmHg 91%
    13:00 +5°C° 0.5 mm 5 mps 688 mmHg 87%
    14:00 +6°C° 0.5 mm 5 mps 688 mmHg 84%
    15:00 +5°C° 0.7 mm 5 mps 687 mmHg 86%
    16:00 +5°C° 0.7 mm 5 mps 686 mmHg 88%
    17:00 +5°C° 0.7 mm 4 mps 686 mmHg 90%
    18:00 +4°C° 0.9 mm 4 mps 686 mmHg 91%
    19:00 +3°C° 0.9 mm 5 mps 686 mmHg 93%
    20:00 +3°C° 0.9 mm 5 mps 686 mmHg 94%
    21:00 +3°C° 0.1 mm 5 mps 686 mmHg 94%
    22:00 +4°C° 0.1 mm 4 mps 686 mmHg 95%
    23:00 +4°C° 0.1 mm 4 mps 686 mmHg 95%

    25 Enero, Viernes

    Tiempo Temperatura Precipitaciones Viento Presión Humedad
    00:00 +4°C° 0.1 mm 3 mps 686 mmHg 96%
    01:00 +3°C° 0.1 mm 3 mps 686 mmHg 96%
    02:00 +3°C° 0.1 mm 3 mps 686 mmHg 97%
    03:00 +3°C° 0 mm 3 mps 686 mmHg 97%
    04:00 +4°C° 0 mm 2 mps 685 mmHg 97%
    05:00 +4°C° 0 mm 2 mps 685 mmHg 97%
    06:00 +3°C° 0.1 mm 2 mps 685 mmHg 97%
    07:00 +3°C° 0.1 mm 2 mps 685 mmHg 97%
    08:00 +3°C° 0.1 mm 2 mps 686 mmHg 97%
    09:00 +4°C° 0.4 mm 2 mps 686 mmHg 96%
    10:00 +5°C° 0.4 mm 1 mps 686 mmHg 95%
    11:00 +5°C° 0.4 mm 1 mps 687 mmHg 94%
    12:00 +5°C° 1.2 mm 1 mps 687 mmHg 93%
    13:00 +5°C° 1.2 mm 1 mps 687 mmHg 91%
    14:00 +6°C° 1.2 mm 1 mps 686 mmHg 89%
    15:00 +5°C° 1.7 mm 1 mps 687 mmHg 89%
    16:00 +5°C° 1.7 mm 1 mps 687 mmHg 89%
    17:00 +5°C° 1.7 mm 1 mps 687 mmHg 89%
    18:00 +5°C° 1.9 mm 1 mps 688 mmHg 90%
    19:00 +5°C° 1.9 mm 1 mps 689 mmHg 91%
    20:00 +3°C° 1.9 mm 2 mps 689 mmHg 92%
    21:00 +3°C° 1.1 mm 2 mps 689 mmHg 92%
    22:00 +3°C° 1.1 mm 2 mps 690 mmHg 91%
    23:00 +3°C° 1.1 mm 2 mps 690 mmHg 91%
    Mostrar más